Time,TemperatureF,DewpointF,PressureIn,WindDirection,WindDirectionDegrees,WindSpeedMPH,WindSpeedGustMPH,Humidity,HourlyPrecipIn,Conditions,Clouds,dailyrainin,SoftwareType,DateUTC
2013-01-31 00:01:00,51.1,45.5,29.39,WSW,240,20.7,20.7,81,0.09,-RA,SCT,0.00,WeatherDisplay:10.37,2013-01-31 05:01:00,
2013-01-31 00:02:00,51.2,45.6,29.39,SSW,205,28.5,28.5,81,0.09,RA,SCT,0.00,WeatherDisplay:10.37,2013-01-31 05:02:00,
2013-01-31 00:07:00,51.7,45.4,29.38,South,188,19.6,19.6,79,0.08,RA,SCT,0.00,WeatherDisplay:10.37,2013-01-31 05:07:00,
2013-01-31 00:12:00,51.8,44.8,29.39,WSW,257,25.3,25.3,77,0.07,OVC,SCT,0.00,WeatherDisplay:10.37,2013-01-31 05:12:00,
2013-01-31 00:17:00,51.8,44.8,29.38,South,171,17.3,17.3,77,0.06,OVC,SCT,0.00,WeatherDisplay:10.37,2013-01-31 05:17:00,
2013-01-31 00:22:00,51.7,45.1,29.40,West,265,19.6,19.6,78,0.04,OVC,SCT,0.00,WeatherDisplay:10.37,2013-01-31 05:22:00,
2013-01-31 00:27:00,51.5,44.9,29.39,WNW,294,13.8,13.8,78,0.04,OVC,SCT,0.00,WeatherDisplay:10.37,2013-01-31 05:27:00,
2013-01-31 00:32:00,51.4,45.1,29.40,WSW,240,10.4,10.4,79,0.03,OVC,SCT,0.00,WeatherDisplay:10.37,2013-01-31 05:32:00,
2013-01-31 00:37:00,50.9,45.6,29.40,NNW,335,9.2,9.2,82,0.02,RA,SCT,0.01,WeatherDisplay:10.37,2013-01-31 05:37:00,
2013-01-31 00:42:00,50.4,45.4,29.39,WNW,302,10.4,10.4,83,0.01,RA,SCT,0.01,WeatherDisplay:10.37,2013-01-31 05:42:00,
2013-01-31 00:47:00,50.0,45.7,29.38,WNW,294,8.5,8.5,85,0.01,OVC,SCT,0.01,WeatherDisplay:10.37,2013-01-31 05:47:00,
2013-01-31 00:52:00,49.5,45.5,29.40,North,7,8.1,8.1,86,0.01,OVC,SCT,0.01,WeatherDisplay:10.37,2013-01-31 05:52:00,
2013-01-31 00:57:00,49.2,45.2,29.39,North,11,9.2,9.2,86,0.01,OVC,SCT,0.01,WeatherDisplay:10.37,2013-01-31 05:57:00,
2013-01-31 01:02:00,48.9,44.9,29.38,NNE,28,23.0,23.0,86,0.01,OVC,SCT,0.01,WeatherDisplay:10.37,2013-01-31 06:02:00,
2013-01-31 01:07:00,48.4,44.1,29.40,WNW,301,11.5,11.5,85,0.01,OVC,SCT,0.01,WeatherDisplay:10.37,2013-01-31 06:07:00,
2013-01-31 01:12:00,48.1,43.5,29.41,West,268,10.4,10.4,84,0.01,OVC,SCT,0.01,WeatherDisplay:10.37,2013-01-31 06:12:00,
2013-01-31 01:17:00,47.8,42.9,29.40,NE,51,13.8,13.8,83,0.01,OVC,SCT,0.01,WeatherDisplay:10.37,2013-01-31 06:17:00,
2013-01-31 01:22:00,47.6,42.7,29.39,WSW,256,14.2,14.2,83,0.01,OVC,SCT,0.01,WeatherDisplay:10.37,2013-01-31 06:22:00,
2013-01-31 01:27:00,47.4,41.9,29.40,North,357,24.2,24.2,81,0.01,OVC,SCT,0.01,WeatherDisplay:10.37,2013-01-31 06:27:00,
2013-01-31 01:32:00,47.2,41.3,29.41,SW,232,19.6,19.6,80,0.01,OVC,SCT,0.01,WeatherDisplay:10.37,2013-01-31 06:32:00,
2013-01-31 01:37:00,47.3,41.4,29.41,WSW,258,28.8,28.8,80,0.00,OVC,SCT,0.01,WeatherDisplay:10.37,2013-01-31 06:37:00,
2013-01-31 01:42:00,47.1,41.2,29.41,North,360,15.0,15.0,80,0.00,OVC,SCT,0.01,WeatherDisplay:10.37,2013-01-31 06:42:00,
2013-01-31 01:47:00,47.2,41.7,29.40,NW,323,11.5,11.5,81,0.00,OVC,SCT,0.01,WeatherDisplay:10.37,2013-01-31 06:47:00,
2013-01-31 01:52:00,47.0,41.5,29.40,WSW,256,16.1,16.1,81,0.00,OVC,SCT,0.01,WeatherDisplay:10.37,2013-01-31 06:52:00,
2013-01-31 01:57:00,46.8,41.0,29.40,SSE,157,15.0,15.0,80,0.00,OVC,SCT,0.01,WeatherDisplay:10.37,2013-01-31 06:57:00,
2013-01-31 02:02:00,46.8,41.3,29.41,WNW,289,10.8,10.8,81,0.00,SCT,,0.01,WeatherDisplay:10.37,2013-01-31 07:02:00,
2013-01-31 02:07:00,46.7,41.5,29.42,SW,215,12.7,12.7,82,0.00,SCT,,0.01,WeatherDisplay:10.37,2013-01-31 07:07:00,
2013-01-31 02:12:00,46.0,41.1,29.43,ENE,73,19.6,19.6,83,0.01,RA,SCT,0.02,WeatherDisplay:10.37,2013-01-31 07:12:00,
2013-01-31 02:17:00,45.2,40.3,29.44,NNW,336,16.1,16.1,83,0.01,RA,SCT,0.02,WeatherDisplay:10.37,2013-01-31 07:17:00,
2013-01-31 02:22:00,44.3,39.2,29.43,WNW,296,15.0,15.0,82,0.01,SCT,,0.02,WeatherDisplay:10.37,2013-01-31 07:22:00,
2013-01-31 02:27:00,44.0,38.9,29.44,WSW,251,10.4,10.4,82,0.01,SCT,,0.02,WeatherDisplay:10.37,2013-01-31 07:27:00,
2013-01-31 02:32:00,43.4,38.0,29.44,South,185,19.6,19.6,81,0.01,SCT,,0.02,WeatherDisplay:10.37,2013-01-31 07:32:00,
2013-01-31 02:37:00,43.1,37.3,29.43,WNW,299,23.0,23.0,80,0.01,SCT,,0.02,WeatherDisplay:10.37,2013-01-31 07:37:00,
2013-01-31 02:42:00,43.0,37.3,29.43,WNW,285,19.6,19.6,80,0.01,SCT,,0.02,WeatherDisplay:10.37,2013-01-31 07:42:00,
2013-01-31 02:47:00,42.7,37.0,29.43,WSW,247,17.3,17.3,80,0.01,SCT,,0.02,WeatherDisplay:10.37,2013-01-31 07:47:00,
2013-01-31 02:52:00,42.7,36.6,29.43,SE,143,17.3,17.3,79,0.01,SCT,,0.02,WeatherDisplay:10.37,2013-01-31 07:52:00,
2013-01-31 02:57:00,42.4,36.7,29.43,WNW,289,13.4,13.4,80,0.01,SCT,,0.02,WeatherDisplay:10.37,2013-01-31 07:57:00,
2013-01-31 03:02:00,42.3,36.6,29.44,NNW,330,10.4,10.4,80,0.01,SCT,,0.02,WeatherDisplay:10.37,2013-01-31 08:02:00,
2013-01-31 03:07:00,42.4,36.7,29.44,NE,55,13.8,13.8,80,0.01,SCT,,0.02,WeatherDisplay:10.37,2013-01-31 08:07:00,
2013-01-31 03:12:00,42.4,36.7,29.44,NE,34,17.3,17.3,80,0.00,SCT,,0.02,WeatherDisplay:10.37,2013-01-31 08:12:00,
2013-01-31 03:17:00,42.0,36.3,29.44,North,0,12.7,12.7,80,0.00,SCT,,0.02,WeatherDisplay:10.37,2013-01-31 08:17:00,
2013-01-31 03:22:00,42.1,36.4,29.45,NW,320,8.1,8.1,80,0.00,SCT,,0.02,WeatherDisplay:10.37,2013-01-31 08:22:00,
2013-01-31 03:27:00,42.1,36.4,29.45,NE,35,11.5,11.5,80,0.00,SCT,,0.02,WeatherDisplay:10.37,2013-01-31 08:27:00,
2013-01-31 03:32:00,42.0,36.3,29.45,North,349,13.8,13.8,80,0.00,SCT,,0.02,WeatherDisplay:10.37,2013-01-31 08:32:00,
2013-01-31 03:37:00,41.9,36.2,29.46,NE,55,12.7,12.7,80,0.00,SCT,,0.02,WeatherDisplay:10.37,2013-01-31 08:37:00,
2013-01-31 03:42:00,41.8,36.1,29.47,NNE,27,20.7,20.7,80,0.00,SCT,,0.02,WeatherDisplay:10.37,2013-01-31 08:42:00,
2013-01-31 03:47:00,41.7,36.0,29.46,NNE,27,13.8,13.8,80,0.00,SCT,,0.02,WeatherDisplay:10.37,2013-01-31 08:47:00,
2013-01-31 03:52:00,41.5,35.8,29.47,NW,309,12.7,12.7,80,0.00,SCT,,0.02,WeatherDisplay:10.37,2013-01-31 08:52:00,
2013-01-31 03:57:00,41.5,35.8,29.47,WNW,302,13.8,13.8,80,0.00,SCT,,0.02,WeatherDisplay:10.37,2013-01-31 08:57:00,
2013-01-31 04:02:00,41.3,35.6,29.48,West,263,17.3,17.3,80,0.00,BKN,SCT,0.02,WeatherDisplay:10.37,2013-01-31 09:02:00,
2013-01-31 04:07:00,41.0,35.3,29.48,NW,320,15.0,15.0,80,0.00,BKN,SCT,0.02,WeatherDisplay:10.37,2013-01-31 09:07:00,
2013-01-31 04:12:00,40.7,35.0,29.49,North,352,16.1,16.1,80,0.00,BKN,SCT,0.02,WeatherDisplay:10.37,2013-01-31 09:12:00,
2013-01-31 04:17:00,40.6,34.9,29.49,South,182,17.3,17.3,80,0.00,BKN,SCT,0.02,WeatherDisplay:10.37,2013-01-31 09:17:00,
2013-01-31 04:22:00,40.4,34.7,29.50,ENE,68,12.7,12.7,80,0.00,BKN,SCT,0.02,WeatherDisplay:10.37,2013-01-31 09:22:00,
2013-01-31 04:27:00,40.2,34.8,29.51,West,260,10.4,10.4,81,0.00,BKN,SCT,0.02,WeatherDisplay:10.37,2013-01-31 09:27:00,
2013-01-31 04:32:00,40.1,34.7,29.51,NW,313,13.8,13.8,81,0.00,BKN,SCT,0.02,WeatherDisplay:10.37,2013-01-31 09:32:00,
2013-01-31 04:37:00,39.8,34.4,29.52,NNW,336,10.4,10.4,81,0.00,BKN,SCT,0.02,WeatherDisplay:10.37,2013-01-31 09:37:00,
2013-01-31 04:42:00,39.6,33.9,29.52,North,359,20.7,20.7,80,0.00,BKN,SCT,0.02,WeatherDisplay:10.37,2013-01-31 09:42:00,
2013-01-31 04:47:00,39.2,33.2,29.53,West,277,13.8,13.8,79,0.00,BKN,SCT,0.02,WeatherDisplay:10.37,2013-01-31 09:47:00,
2013-01-31 04:52:00,38.8,32.2,29.54,WNW,285,19.6,19.6,77,0.00,BKN,SCT,0.02,WeatherDisplay:10.37,2013-01-31 09:52:00,
2013-01-31 04:57:00,38.4,31.8,29.54,ENE,59,11.5,11.5,77,0.00,BKN,SCT,0.02,WeatherDisplay:10.37,2013-01-31 09:57:00,
2013-01-31 05:02:00,38.2,31.3,29.55,NE,35,20.7,20.7,76,0.00,FEW,SCT,0.02,WeatherDisplay:10.37,2013-01-31 10:02:00,
2013-01-31 05:07:00,37.8,30.9,29.56,NE,45,12.7,12.7,76,0.00,FEW,SCT,0.02,WeatherDisplay:10.37,2013-01-31 10:07:00,
2013-01-31 05:12:00,37.5,30.3,29.56,West,271,15.0,15.0,75,0.00,FEW,SCT,0.02,WeatherDisplay:10.37,2013-01-31 10:12:00,
2013-01-31 05:18:00,37.2,30.3,29.57,WNW,294,15.0,15.0,76,0.00,FEW,SCT,0.02,WeatherDisplay:10.37,2013-01-31 10:18:00,
2013-01-31 05:23:00,37.1,29.9,29.57,NE,37,24.2,24.2,75,0.00,FEW,SCT,0.02,WeatherDisplay:10.37,2013-01-31 10:23:00,
2013-01-31 05:28:00,37.0,29.8,29.58,North,357,19.6,19.6,75,0.00,FEW,SCT,0.02,WeatherDisplay:10.37,2013-01-31 10:28:00,
2013-01-31 05:33:00,36.7,29.5,29.58,NNW,328,11.9,11.9,75,0.00,FEW,SCT,0.02,WeatherDisplay:10.37,2013-01-31 10:33:00,
2013-01-31 05:38:00,36.7,28.9,29.58,ENE,73,13.8,13.8,73,0.00,FEW,SCT,0.02,WeatherDisplay:10.37,2013-01-31 10:38:00,
2013-01-31 05:43:00,36.6,28.4,29.58,NE,49,18.4,18.4,72,0.00,FEW,SCT,0.02,WeatherDisplay:10.37,2013-01-31 10:43:00,
2013-01-31 05:48:00,36.5,28.3,29.58,NNE,28,19.6,19.6,72,0.00,FEW,SCT,0.02,WeatherDisplay:10.37,2013-01-31 10:48:00,
2013-01-31 05:53:00,36.5,28.3,29.58,NE,45,18.6,18.6,72,0.00,FEW,SCT,0.02,WeatherDisplay:10.37,2013-01-31 10:53:00,
2013-01-31 05:58:00,36.2,28.0,29.59,NNW,329,18.4,18.4,72,0.00,FEW,SCT,0.02,WeatherDisplay:10.37,2013-01-31 10:58:00,
2013-01-31 06:03:00,36.1,27.6,29.60,North,10,17.3,17.3,71,0.00,FEW,SCT,0.02,WeatherDisplay:10.37,2013-01-31 11:03:00,
2013-01-31 06:08:00,36.2,28.0,29.61,North,1,16.1,16.1,72,0.00,FEW,SCT,0.02,WeatherDisplay:10.37,2013-01-31 11:08:00,
2013-01-31 06:13:00,36.2,28.0,29.61,NNE,14,13.8,13.8,72,0.00,FEW,SCT,0.02,WeatherDisplay:10.37,2013-01-31 11:13:00,
2013-01-31 06:18:00,36.2,28.0,29.61,NW,320,11.5,11.5,72,0.00,FEW,SCT,0.02,WeatherDisplay:10.37,2013-01-31 11:18:00,
2013-01-31 06:23:00,36.0,27.8,29.61,ENE,62,13.8,13.8,72,0.00,FEW,SCT,0.02,WeatherDisplay:10.37,2013-01-31 11:23:00,
2013-01-31 06:28:00,35.9,27.4,29.62,NE,38,10.4,10.4,71,0.00,FEW,SCT,0.02,WeatherDisplay:10.37,2013-01-31 11:28:00,
2013-01-31 06:33:00,35.8,27.7,29.62,WNW,287,15.0,15.0,72,0.00,FEW,SCT,0.02,WeatherDisplay:10.37,2013-01-31 11:33:00,
2013-01-31 06:38:00,35.7,27.6,29.62,West,260,13.8,13.8,72,0.00,FEW,SCT,0.02,WeatherDisplay:10.37,2013-01-31 11:38:00,
2013-01-31 06:43:00,35.4,27.3,29.63,NE,49,13.8,13.8,72,0.00,FEW,SCT,0.02,WeatherDisplay:10.37,2013-01-31 11:43:00,
2013-01-31 06:48:00,35.2,27.4,29.63,NW,326,18.4,18.4,73,0.00,FEW,SCT,0.02,WeatherDisplay:10.37,2013-01-31 11:48:00,
2013-01-31 06:53:00,35.0,27.2,29.63,NNW,346,12.7,12.7,73,0.00,FEW,SCT,0.02,WeatherDisplay:10.37,2013-01-31 11:53:00,
2013-01-31 06:58:00,34.9,27.5,29.64,WNW,282,15.0,15.0,74,0.00,FEW,SCT,0.02,WeatherDisplay:10.37,2013-01-31 11:58:00,
2013-01-31 07:03:00,34.8,27.4,29.64,West,267,13.8,13.8,74,0.00,OVC,SCT,0.02,WeatherDisplay:10.37,2013-01-31 12:03:00,
2013-01-31 07:08:00,34.5,26.4,29.65,NNW,343,11.5,11.5,72,0.00,OVC,SCT,0.02,WeatherDisplay:10.37,2013-01-31 12:08:00,
2013-01-31 07:13:00,34.5,26.4,29.65,ENE,69,10.4,10.4,72,0.00,OVC,SCT,0.02,WeatherDisplay:10.37,2013-01-31 12:13:00,
2013-01-31 07:18:00,34.3,26.2,29.66,ENE,65,9.2,9.2,72,0.00,OVC,SCT,0.02,WeatherDisplay:10.37,2013-01-31 12:18:00,
2013-01-31 07:23:00,34.4,26.0,29.66,NNE,23,15.0,15.0,71,0.00,OVC,SCT,0.02,WeatherDisplay:10.37,2013-01-31 12:23:00,
2013-01-31 07:28:00,34.2,25.8,29.66,NW,325,23.0,23.0,71,0.00,OVC,SCT,0.02,WeatherDisplay:10.37,2013-01-31 12:28:00,
2013-01-31 07:33:00,34.3,25.5,29.67,North,11,11.5,11.5,70,0.00,OVC,SCT,0.02,WeatherDisplay:10.37,2013-01-31 12:33:00,
2013-01-31 07:38:00,34.3,25.5,29.67,WNW,284,10.6,10.6,70,0.00,OVC,SCT,0.02,WeatherDisplay:10.37,2013-01-31 12:38:00,
2013-01-31 07:43:00,34.1,25.3,29.67,NNE,31,16.1,16.1,70,0.00,OVC,SCT,0.02,WeatherDisplay:10.37,2013-01-31 12:43:00,
2013-01-31 07:48:00,34.1,25.3,29.68,ENE,75,13.8,13.8,70,0.00,OVC,SCT,0.02,WeatherDisplay:10.37,2013-01-31 12:48:00,
2013-01-31 07:53:00,34.1,25.0,29.68,NNE,24,9.2,9.2,69,0.00,OVC,SCT,0.02,WeatherDisplay:10.37,2013-01-31 12:53:00,
2013-01-31 07:58:00,34.1,25.3,29.68,WSW,258,11.5,11.5,70,0.00,OVC,SCT,0.02,WeatherDisplay:10.37,2013-01-31 12:58:00,
2013-01-31 08:03:00,33.9,25.1,29.68,NNW,330,10.4,10.4,70,0.00,BKN,SCT,0.02,WeatherDisplay:10.37,2013-01-31 13:03:00,
2013-01-31 08:08:00,33.9,25.1,29.69,WNW,301,13.8,13.8,70,0.00,BKN,SCT,0.02,WeatherDisplay:10.37,2013-01-31 13:08:00,
2013-01-31 08:13:00,33.8,25.4,29.68,ENE,72,8.1,8.1,71,0.00,BKN,SCT,0.02,WeatherDisplay:10.37,2013-01-31 13:13:00,
2013-01-31 08:18:00,34.1,25.3,29.69,NNE,21,10.4,10.4,70,0.00,BKN,SCT,0.02,WeatherDisplay:10.37,2013-01-31 13:18:00,
2013-01-31 08:23:00,34.2,25.4,29.69,WNW,291,13.8,13.8,70,0.00,BKN,SCT,0.02,WeatherDisplay:10.37,2013-01-31 13:23:00,
2013-01-31 08:28:00,34.4,24.9,29.69,North,354,15.0,15.0,68,0.00,BKN,SCT,0.02,WeatherDisplay:10.37,2013-01-31 13:28:00,
2013-01-31 08:33:00,34.3,24.8,29.70,ENE,64,11.2,11.2,68,0.00,BKN,SCT,0.02,WeatherDisplay:10.37,2013-01-31 13:33:00,
2013-01-31 08:38:00,34.7,25.2,29.72,NE,41,11.5,11.5,68,0.00,BKN,SCT,0.02,WeatherDisplay:10.37,2013-01-31 13:38:00,
2013-01-31 08:43:00,34.9,25.4,29.72,North,8,9.2,9.2,68,0.00,BKN,SCT,0.02,WeatherDisplay:10.37,2013-01-31 13:43:00,
2013-01-31 08:48:00,34.7,25.2,29.72,North,8,11.5,11.5,68,0.00,BKN,SCT,0.02,WeatherDisplay:10.37,2013-01-31 13:48:00,
2013-01-31 08:53:00,34.9,25.8,29.74,WSW,244,12.7,12.7,69,0.00,BKN,SCT,0.02,WeatherDisplay:10.37,2013-01-31 13:53:00,
2013-01-31 08:58:00,34.5,25.7,29.73,West,277,12.7,12.7,70,0.00,BKN,SCT,0.02,WeatherDisplay:10.37,2013-01-31 13:58:00,
2013-01-31 09:03:00,34.3,25.5,29.74,West,271,15.0,15.0,70,0.00,BKN,SCT,0.02,WeatherDisplay:10.37,2013-01-31 14:03:00,
2013-01-31 09:08:00,34.0,25.2,29.74,WSW,253,12.7,12.7,70,0.00,BKN,SCT,0.02,WeatherDisplay:10.37,2013-01-31 14:08:00,
2013-01-31 09:13:00,33.9,25.1,29.74,NW,325,10.4,10.4,70,0.00,BKN,SCT,0.02,WeatherDisplay:10.37,2013-01-31 14:13:00,
2013-01-31 09:18:00,34.1,25.3,29.75,NE,48,13.8,13.8,70,0.00,BKN,SCT,0.02,WeatherDisplay:10.37,2013-01-31 14:18:00,
2013-01-31 09:23:00,34.5,25.4,29.75,WNW,285,15.0,15.0,69,0.00,BKN,SCT,0.02,WeatherDisplay:10.37,2013-01-31 14:23:00,
2013-01-31 09:28:00,34.2,24.4,29.75,NE,42,20.7,20.7,67,0.00,BKN,SCT,0.02,WeatherDisplay:10.37,2013-01-31 14:28:00,
2013-01-31 09:33:00,34.0,23.8,29.75,NW,312,20.7,20.7,66,0.00,BKN,SCT,0.02,WeatherDisplay:10.37,2013-01-31 14:33:00,
2013-01-31 09:38:00,34.2,24.0,29.75,WNW,289,20.7,20.7,66,0.00,BKN,SCT,0.02,WeatherDisplay:10.37,2013-01-31 14:38:00,
2013-01-31 09:43:00,34.5,23.9,29.76,WNW,284,31.1,31.1,65,0.00,BKN,SCT,0.02,WeatherDisplay:10.37,2013-01-31 14:43:00,
2013-01-31 09:48:00,35.0,24.4,29.76,WNW,296,15.6,15.6,65,0.00,BKN,SCT,0.02,WeatherDisplay:10.37,2013-01-31 14:48:00,
2013-01-31 09:53:00,36.0,25.4,29.75,NE,35,11.5,11.5,65,0.00,BKN,SCT,0.02,WeatherDisplay:10.37,2013-01-31 14:53:00,
2013-01-31 09:58:00,36.7,25.3,29.75,North,7,17.0,17.0,63,0.00,BKN,SCT,0.02,WeatherDisplay:10.37,2013-01-31 14:58:00,
2013-01-31 10:03:00,37.3,25.5,29.76,NNW,342,16.1,16.1,62,0.00,BKN,SCT,0.02,WeatherDisplay:10.37,2013-01-31 15:03:00,
2013-01-31 10:08:00,38.1,26.2,29.76,NNW,328,15.0,15.0,62,0.00,BKN,SCT,0.02,WeatherDisplay:10.37,2013-01-31 15:08:00,
2013-01-31 10:13:00,38.3,25.6,29.76,SSE,155,28.8,28.8,60,0.00,BKN,SCT,0.02,WeatherDisplay:10.37,2013-01-31 15:13:00,
2013-01-31 10:18:00,38.3,26.0,29.76,NNE,28,19.6,19.6,61,0.00,BKN,SCT,0.02,WeatherDisplay:10.37,2013-01-31 15:18:00,
2013-01-31 10:23:00,38.2,25.9,29.77,North,8,11.5,11.5,61,0.00,BKN,SCT,0.02,WeatherDisplay:10.37,2013-01-31 15:23:00,
2013-01-31 10:28:00,38.2,26.3,29.78,West,268,15.0,15.0,62,0.00,BKN,SCT,0.02,WeatherDisplay:10.37,2013-01-31 15:28:00,
2013-01-31 10:33:00,37.7,26.2,29.78,SW,223,10.8,10.8,63,0.00,BKN,SCT,0.02,WeatherDisplay:10.37,2013-01-31 15:33:00,
2013-01-31 10:38:00,37.8,26.7,29.78,WNW,288,12.7,12.7,64,0.00,BKN,SCT,0.02,WeatherDisplay:10.37,2013-01-31 15:38:00,
2013-01-31 10:43:00,37.9,26.8,29.78,SW,236,15.7,15.7,64,0.00,BKN,SCT,0.02,WeatherDisplay:10.37,2013-01-31 15:43:00,
2013-01-31 10:48:00,38.7,27.6,29.78,WSW,246,22.8,22.8,64,0.00,BKN,SCT,0.02,WeatherDisplay:10.37,2013-01-31 15:48:00,
2013-01-31 10:53:00,39.1,27.6,29.78,ENE,75,9.2,9.2,63,0.00,BKN,SCT,0.02,WeatherDisplay:10.37,2013-01-31 15:53:00,
2013-01-31 10:58:00,39.5,27.5,29.79,NE,42,15.0,15.0,62,0.00,BKN,SCT,0.02,WeatherDisplay:10.37,2013-01-31 15:58:00,
2013-01-31 11:03:00,39.7,27.3,29.79,NE,37,17.3,17.3,61,0.00,OVC,SCT,0.02,WeatherDisplay:10.37,2013-01-31 16:03:00,
2013-01-31 11:08:00,39.9,26.7,29.79,NNE,13,17.3,17.3,59,0.00,OVC,SCT,0.02,WeatherDisplay:10.37,2013-01-31 16:08:00,
2013-01-31 11:13:00,40.2,27.0,29.79,North,0,15.0,15.0,59,0.00,OVC,SCT,0.02,WeatherDisplay:10.37,2013-01-31 16:13:00,
2013-01-31 11:18:00,40.6,27.0,29.80,West,272,12.7,12.7,58,0.00,OVC,SCT,0.02,WeatherDisplay:10.37,2013-01-31 16:18:00,
2013-01-31 11:23:00,40.3,25.8,29.80,NNE,18,18.4,18.4,56,0.00,OVC,SCT,0.02,WeatherDisplay:10.37,2013-01-31 16:23:00,
2013-01-31 11:28:00,40.7,26.6,29.80,NW,325,15.0,15.0,57,0.00,OVC,SCT,0.02,WeatherDisplay:10.37,2013-01-31 16:28:00,
2013-01-31 11:33:00,41.3,27.2,29.80,North,10,11.4,11.4,57,0.00,OVC,SCT,0.02,WeatherDisplay:10.37,2013-01-31 16:33:00,
2013-01-31 11:38:00,41.3,25.9,29.80,West,261,21.9,21.9,54,0.00,OVC,SCT,0.02,WeatherDisplay:10.37,2013-01-31 16:38:00,
2013-01-31 11:43:00,40.8,25.4,29.80,North,4,12.7,12.7,54,0.00,OVC,SCT,0.02,WeatherDisplay:10.37,2013-01-31 16:43:00,
2013-01-31 11:48:00,40.3,24.5,29.80,NNW,329,20.7,20.7,53,0.00,OVC,SCT,0.02,WeatherDisplay:10.37,2013-01-31 16:48:00,
2013-01-31 11:53:00,40.4,25.1,29.79,WNW,285,16.1,16.1,54,0.00,OVC,SCT,0.02,WeatherDisplay:10.37,2013-01-31 16:53:00,
2013-01-31 11:58:00,40.3,24.1,29.80,West,270,25.3,25.3,52,0.00,OVC,SCT,0.02,WeatherDisplay:10.37,2013-01-31 16:58:00,
2013-01-31 12:03:00,40.2,23.5,29.80,NNW,333,19.6,19.6,51,0.00,OVC,SCT,0.02,WeatherDisplay:10.37,2013-01-31 17:03:00,
2013-01-31 12:08:00,40.6,25.2,29.80,NW,326,13.8,13.8,54,0.00,OVC,SCT,0.02,WeatherDisplay:10.37,2013-01-31 17:08:00,
2013-01-31 12:13:00,41.4,25.1,29.80,WNW,299,10.4,10.4,52,0.00,OVC,SCT,0.02,WeatherDisplay:10.37,2013-01-31 17:13:00,
2013-01-31 12:18:00,41.9,25.1,29.80,NNE,27,17.3,17.3,51,0.00,OVC,SCT,0.02,WeatherDisplay:10.37,2013-01-31 17:18:00,
2013-01-31 12:23:00,42.2,25.3,29.79,West,265,13.8,13.8,51,0.00,OVC,SCT,0.02,WeatherDisplay:10.37,2013-01-31 17:23:00,
2013-01-31 12:28:00,42.2,24.9,29.80,West,281,19.6,19.6,50,0.00,OVC,SCT,0.02,WeatherDisplay:10.37,2013-01-31 17:28:00,
2013-01-31 12:33:00,42.1,24.8,29.79,North,349,15.0,15.0,50,0.00,OVC,SCT,0.02,WeatherDisplay:10.37,2013-01-31 17:33:00,
2013-01-31 12:38:00,42.2,24.9,29.79,NE,35,17.3,17.3,50,0.00,OVC,SCT,0.02,WeatherDisplay:10.37,2013-01-31 17:38:00,
2013-01-31 12:43:00,42.3,25.0,29.79,NNW,337,10.4,10.4,50,0.00,OVC,SCT,0.02,WeatherDisplay:10.37,2013-01-31 17:43:00,
2013-01-31 12:48:00,42.4,24.6,29.79,WSW,247,11.5,11.5,49,0.00,OVC,SCT,0.02,WeatherDisplay:10.37,2013-01-31 17:48:00,
2013-01-31 12:53:00,42.3,24.5,29.79,WNW,289,16.1,16.1,49,0.00,OVC,SCT,0.02,WeatherDisplay:10.37,2013-01-31 17:53:00,
2013-01-31 12:58:00,42.3,25.0,29.79,NW,326,15.0,15.0,50,0.00,OVC,SCT,0.02,WeatherDisplay:10.37,2013-01-31 17:58:00,
2013-01-31 13:03:00,42.0,25.2,29.79,North,352,9.2,9.2,51,0.00,BKN,SCT,0.02,WeatherDisplay:10.37,2013-01-31 18:03:00,
2013-01-31 13:08:00,42.3,25.0,29.79,NNE,16,13.8,13.8,50,0.00,BKN,SCT,0.02,WeatherDisplay:10.37,2013-01-31 18:08:00,
2013-01-31 13:13:00,42.3,24.5,29.79,WNW,291,13.8,13.8,49,0.00,BKN,SCT,0.02,WeatherDisplay:10.37,2013-01-31 18:13:00,
2013-01-31 13:18:00,42.3,25.4,29.80,West,267,15.0,15.0,51,0.00,BKN,SCT,0.02,WeatherDisplay:10.37,2013-01-31 18:18:00,
2013-01-31 13:23:00,42.8,25.9,29.80,NW,308,15.0,15.0,51,0.00,BKN,SCT,0.02,WeatherDisplay:10.37,2013-01-31 18:23:00,
2013-01-31 13:28:00,43.3,25.9,29.80,NW,312,19.6,19.6,50,0.00,BKN,SCT,0.02,WeatherDisplay:10.37,2013-01-31 18:28:00,
2013-01-31 13:33:00,43.8,25.4,29.80,NW,306,21.9,21.9,48,0.00,BKN,SCT,0.02,WeatherDisplay:10.37,2013-01-31 18:33:00,
2013-01-31 13:38:00,43.1,25.2,29.81,North,10,17.3,17.3,49,0.00,BKN,SCT,0.02,WeatherDisplay:10.37,2013-01-31 18:38:00,
2013-01-31 13:43:00,43.2,24.8,29.81,WNW,295,12.7,12.7,48,0.00,BKN,SCT,0.02,WeatherDisplay:10.37,2013-01-31 18:43:00,
2013-01-31 13:48:00,43.9,26.0,29.81,ENE,59,8.7,8.7,49,0.00,BKN,SCT,0.02,WeatherDisplay:10.37,2013-01-31 18:48:00,
2013-01-31 13:53:00,44.6,25.1,29.81,West,277,15.0,15.0,46,0.00,BKN,SCT,0.02,WeatherDisplay:10.37,2013-01-31 18:53:00,
2013-01-31 13:58:00,44.0,25.0,29.81,NNE,28,19.6,19.6,47,0.00,BKN,SCT,0.02,WeatherDisplay:10.37,2013-01-31 18:58:00,
2013-01-31 14:03:00,43.1,25.2,29.81,NNW,336,17.3,17.3,49,0.00,BKN,SCT,0.02,WeatherDisplay:10.37,2013-01-31 19:03:00,
2013-01-31 14:08:00,42.4,25.1,29.82,North,7,10.4,10.4,50,0.00,BKN,SCT,0.02,WeatherDisplay:10.37,2013-01-31 19:08:00,
2013-01-31 14:13:00,41.7,24.9,29.82,WSW,239,6.9,6.9,51,0.00,BKN,SCT,0.02,WeatherDisplay:10.37,2013-01-31 19:13:00,
2013-01-31 14:18:00,40.6,23.4,29.82,NE,37,14.6,14.6,50,0.00,BKN,SCT,0.02,WeatherDisplay:10.37,2013-01-31 19:18:00,
2013-01-31 14:23:00,39.9,23.2,29.82,NW,322,13.8,13.8,51,0.00,BKN,SCT,0.02,WeatherDisplay:10.37,2013-01-31 19:23:00,
2013-01-31 14:28:00,39.3,23.1,29.82,NNE,24,19.6,19.6,52,0.00,BKN,SCT,0.02,WeatherDisplay:10.37,2013-01-31 19:28:00,
2013-01-31 14:33:00,38.7,22.6,29.82,NNW,337,11.5,11.5,52,0.00,BKN,SCT,0.02,WeatherDisplay:10.37,2013-01-31 19:33:00,
2013-01-31 14:38:00,38.2,22.6,29.82,NW,326,17.3,17.3,53,0.00,BKN,SCT,0.02,WeatherDisplay:10.37,2013-01-31 19:38:00,
2013-01-31 14:43:00,38.1,22.5,29.82,NNW,342,18.4,18.4,53,0.00,BKN,SCT,0.02,WeatherDisplay:10.37,2013-01-31 19:43:00,
2013-01-31 14:48:00,37.5,21.9,29.83,South,184,23.0,23.0,53,0.00,BKN,SCT,0.02,WeatherDisplay:10.37,2013-01-31 19:48:00,
2013-01-31 14:53:00,37.3,22.2,29.83,North,349,17.3,17.3,54,0.00,BKN,SCT,0.02,WeatherDisplay:10.37,2013-01-31 19:53:00,
2013-01-31 14:58:00,37.3,22.6,29.84,NW,318,15.0,15.0,55,0.00,BKN,SCT,0.02,WeatherDisplay:10.37,2013-01-31 19:58:00,
2013-01-31 15:03:00,37.0,22.3,29.84,NNW,336,11.5,11.5,55,0.00,BKN,SCT,0.02,WeatherDisplay:10.37,2013-01-31 20:03:00,
2013-01-31 15:08:00,36.8,22.1,29.84,North,349,11.5,11.5,55,0.00,BKN,SCT,0.02,WeatherDisplay:10.37,2013-01-31 20:08:00,
2013-01-31 15:13:00,36.4,21.8,29.84,ESE,113,19.6,19.6,55,0.00,BKN,SCT,0.02,WeatherDisplay:10.37,2013-01-31 20:13:00,
2013-01-31 15:18:00,36.1,21.9,29.85,SE,144,11.5,11.5,56,0.00,BKN,SCT,0.02,WeatherDisplay:10.37,2013-01-31 20:18:00,
2013-01-31 15:23:00,36.0,21.8,29.85,NNE,17,10.4,10.4,56,0.00,BKN,SCT,0.02,WeatherDisplay:10.37,2013-01-31 20:23:00,
2013-01-31 15:28:00,36.0,21.8,29.85,East,95,9.2,9.2,56,0.00,BKN,SCT,0.02,WeatherDisplay:10.37,2013-01-31 20:28:00,
2013-01-31 15:33:00,36.0,21.8,29.85,NE,35,10.4,10.4,56,0.00,BKN,SCT,0.02,WeatherDisplay:10.37,2013-01-31 20:33:00,
2013-01-31 15:38:00,36.1,22.3,29.85,NNW,336,13.8,13.8,57,0.00,BKN,SCT,0.02,WeatherDisplay:10.37,2013-01-31 20:38:00,
2013-01-31 15:43:00,36.0,22.2,29.85,SSE,150,4.6,4.6,57,0.00,BKN,SCT,0.02,WeatherDisplay:10.37,2013-01-31 20:43:00,
2013-01-31 15:48:00,36.2,22.8,29.85,North,11,9.2,9.2,58,0.00,BKN,SCT,0.02,WeatherDisplay:10.37,2013-01-31 20:48:00,
2013-01-31 15:53:00,36.3,22.9,29.85,NNE,14,5.8,5.8,58,0.00,BKN,SCT,0.02,WeatherDisplay:10.37,2013-01-31 20:53:00,
2013-01-31 15:58:00,36.6,22.8,29.86,West,267,15.0,15.0,57,0.00,BKN,SCT,0.02,WeatherDisplay:10.37,2013-01-31 20:58:00,
2013-01-31 16:03:00,36.4,22.2,29.85,East,82,11.5,11.5,56,0.00,BKN,SCT,0.02,WeatherDisplay:10.37,2013-01-31 21:03:00,
2013-01-31 16:09:00,36.2,22.4,29.85,NW,309,8.1,8.1,57,0.00,BKN,SCT,0.02,WeatherDisplay:10.37,2013-01-31 21:09:00,
2013-01-31 16:14:00,36.1,21.9,29.85,SW,230,10.4,10.4,56,0.00,BKN,SCT,0.02,WeatherDisplay:10.37,2013-01-31 21:14:00,
2013-01-31 16:19:00,36.4,22.6,29.85,WSW,256,2.9,2.9,57,0.00,BKN,SCT,0.02,WeatherDisplay:10.37,2013-01-31 21:19:00,
2013-01-31 16:24:00,36.4,22.6,29.86,West,267,8.1,8.1,57,0.00,BKN,SCT,0.02,WeatherDisplay:10.37,2013-01-31 21:24:00,
2013-01-31 16:29:00,36.3,22.5,29.85,NE,37,10.4,10.4,57,0.00,BKN,SCT,0.02,WeatherDisplay:10.37,2013-01-31 21:29:00,
2013-01-31 16:34:00,36.2,22.4,29.86,ENE,68,12.7,12.7,57,0.00,BKN,SCT,0.02,WeatherDisplay:10.37,2013-01-31 21:34:00,
2013-01-31 16:39:00,36.3,22.5,29.86,NE,52,8.1,8.1,57,0.00,BKN,SCT,0.02,WeatherDisplay:10.37,2013-01-31 21:39:00,
2013-01-31 16:44:00,36.5,22.7,29.86,SW,217,5.2,5.2,57,0.00,BKN,SCT,0.02,WeatherDisplay:10.37,2013-01-31 21:44:00,
2013-01-31 16:49:00,36.2,22.0,29.87,WSW,239,24.2,24.2,56,0.00,BKN,SCT,0.02,WeatherDisplay:10.37,2013-01-31 21:49:00,
2013-01-31 16:54:00,35.9,22.1,29.87,West,280,15.0,15.0,57,0.00,BKN,SCT,0.02,WeatherDisplay:10.37,2013-01-31 21:54:00,
2013-01-31 16:59:00,35.7,22.4,29.87,WSW,247,15.1,15.1,58,0.00,BKN,SCT,0.02,WeatherDisplay:10.37,2013-01-31 21:59:00,
2013-01-31 17:04:00,35.1,21.8,29.87,SSW,206,12.7,12.7,58,0.00,OVC,SCT,0.02,WeatherDisplay:10.37,2013-01-31 22:04:00,
2013-01-31 17:09:00,35.3,22.8,29.87,NW,305,2.3,2.3,60,0.00,OVC,SCT,0.02,WeatherDisplay:10.37,2013-01-31 22:09:00,
2013-01-31 17:14:00,35.5,23.0,29.87,NW,304,8.1,8.1,60,0.00,OVC,SCT,0.02,WeatherDisplay:10.37,2013-01-31 22:14:00,
2013-01-31 17:19:00,35.4,22.9,29.88,NW,325,6.9,8.1,60,0.00,OVC,SCT,0.02,WeatherDisplay:10.37,2013-01-31 22:19:00,
2013-01-31 17:24:00,35.0,22.1,29.87,NNW,342,13.8,13.8,59,0.00,OVC,SCT,0.02,WeatherDisplay:10.37,2013-01-31 22:24:00,
2013-01-31 17:29:00,34.7,22.2,29.87,NNW,339,9.2,9.2,60,0.00,OVC,SCT,0.02,WeatherDisplay:10.37,2013-01-31 22:29:00,
2013-01-31 17:34:00,34.6,22.1,29.88,WNW,302,11.5,11.5,60,0.00,OVC,SCT,0.02,WeatherDisplay:10.37,2013-01-31 22:34:00,
2013-01-31 17:39:00,34.4,21.9,29.87,SW,227,4.6,4.6,60,0.00,OVC,SCT,0.02,WeatherDisplay:10.37,2013-01-31 22:39:00,
2013-01-31 17:44:00,34.3,22.2,29.87,NW,319,13.8,13.8,61,0.00,OVC,SCT,0.02,WeatherDisplay:10.37,2013-01-31 22:44:00,
2013-01-31 17:49:00,34.2,21.7,29.87,ENE,78,12.7,12.7,60,0.00,OVC,SCT,0.02,WeatherDisplay:10.37,2013-01-31 22:49:00,
2013-01-31 17:54:00,34.0,22.0,29.87,WSW,253,5.8,5.8,61,0.00,OVC,SCT,0.02,WeatherDisplay:10.37,2013-01-31 22:54:00,
2013-01-31 17:59:00,33.8,21.8,29.88,WNW,292,12.7,12.7,61,0.00,OVC,SCT,0.02,WeatherDisplay:10.37,2013-01-31 22:59:00,
2013-01-31 18:04:00,33.8,21.8,29.88,SW,223,9.2,9.2,61,0.00,BKN,SCT,0.02,WeatherDisplay:10.37,2013-01-31 23:04:00,
2013-01-31 18:09:00,33.6,22.0,29.88,NW,315,8.1,8.1,62,0.00,BKN,SCT,0.02,WeatherDisplay:10.37,2013-01-31 23:09:00,
2013-01-31 18:14:00,33.5,21.5,29.88,WNW,287,11.5,11.5,61,0.00,BKN,SCT,0.02,WeatherDisplay:10.37,2013-01-31 23:14:00,
2013-01-31 18:19:00,33.4,21.4,29.88,West,264,13.8,13.8,61,0.00,BKN,SCT,0.02,WeatherDisplay:10.37,2013-01-31 23:19:00,
2013-01-31 18:24:00,33.1,20.7,29.88,WNW,298,8.1,8.1,60,0.00,BKN,SCT,0.02,WeatherDisplay:10.37,2013-01-31 23:24:00,
2013-01-31 18:29:00,33.0,20.6,29.88,NNW,347,10.1,10.1,60,0.00,BKN,SCT,0.02,WeatherDisplay:10.37,2013-01-31 23:29:00,
2013-01-31 18:34:00,33.0,20.6,29.88,North,349,13.8,13.8,60,0.00,BKN,SCT,0.02,WeatherDisplay:10.37,2013-01-31 23:34:00,
2013-01-31 18:39:00,33.1,20.7,29.88,ENE,68,9.2,9.2,60,0.00,BKN,SCT,0.02,WeatherDisplay:10.37,2013-01-31 23:39:00,
2013-01-31 18:44:00,33.1,20.7,29.88,North,354,15.8,15.8,60,0.00,BKN,SCT,0.02,WeatherDisplay:10.37,2013-01-31 23:44:00,
2013-01-31 18:49:00,33.1,20.7,29.89,NNW,333,10.4,10.4,60,0.00,BKN,SCT,0.02,WeatherDisplay:10.37,2013-01-31 23:49:00,
2013-01-31 18:54:00,33.2,20.8,29.89,NE,40,8.1,8.1,60,0.00,BKN,SCT,0.02,WeatherDisplay:10.37,2013-01-31 23:54:00,
2013-01-31 18:59:00,32.8,20.8,29.88,ENE,69,15.0,15.0,61,0.00,BKN,SCT,0.02,WeatherDisplay:10.37,2013-01-31 23:59:00,
2013-01-31 19:04:00,32.6,20.2,29.88,East,82,24.2,24.2,60,0.00,BKN,SCT,0.02,WeatherDisplay:10.37,2013-02-01 00:04:00,
2013-01-31 19:09:00,32.6,20.2,29.88,West,275,9.2,9.2,60,0.00,BKN,SCT,0.02,WeatherDisplay:10.37,2013-02-01 00:09:00,
2013-01-31 19:14:00,32.8,20.4,29.88,NW,326,12.7,12.7,60,0.00,BKN,SCT,0.02,WeatherDisplay:10.37,2013-02-01 00:14:00,
2013-01-31 19:19:00,32.8,20.0,29.88,NW,322,11.5,11.5,59,0.00,BKN,SCT,0.02,WeatherDisplay:10.37,2013-02-01 00:19:00,
2013-01-31 19:24:00,32.8,20.0,29.88,SW,232,11.5,11.5,59,0.00,BKN,SCT,0.02,WeatherDisplay:10.37,2013-02-01 00:24:00,
2013-01-31 19:29:00,32.8,20.0,29.88,NE,41,13.8,13.8,59,0.00,BKN,SCT,0.02,WeatherDisplay:10.37,2013-02-01 00:29:00,
2013-01-31 19:34:00,33.0,20.2,29.88,WSW,240,8.1,8.1,59,0.00,BKN,SCT,0.02,WeatherDisplay:10.37,2013-02-01 00:34:00,
2013-01-31 19:39:00,32.8,20.4,29.89,ENE,61,9.2,9.2,60,0.00,BKN,SCT,0.02,WeatherDisplay:10.37,2013-02-01 00:39:00,
2013-01-31 19:44:00,32.8,20.4,29.89,South,191,8.1,8.1,60,0.00,BKN,SCT,0.02,WeatherDisplay:10.37,2013-02-01 00:44:00,
2013-01-31 19:49:00,32.8,20.4,29.89,WSW,257,4.6,4.6,60,0.00,BKN,SCT,0.02,WeatherDisplay:10.37,2013-02-01 00:49:00,
2013-01-31 19:54:00,32.8,20.4,29.89,NE,54,10.4,10.4,60,0.00,BKN,SCT,0.02,WeatherDisplay:10.37,2013-02-01 00:54:00,
2013-01-31 19:59:00,32.6,20.6,29.89,WNW,292,9.3,9.3,61,0.00,BKN,SCT,0.02,WeatherDisplay:10.37,2013-02-01 00:59:00,
2013-01-31 20:04:00,32.6,20.6,29.89,NE,49,8.1,8.1,61,0.00,BKN,SCT,0.02,WeatherDisplay:10.37,2013-02-01 01:04:00,
2013-01-31 20:09:00,32.5,20.5,29.89,ENE,65,6.9,6.9,61,0.00,BKN,SCT,0.02,WeatherDisplay:10.37,2013-02-01 01:09:00,
2013-01-31 20:14:00,32.6,20.6,29.88,West,260,6.9,6.9,61,0.00,BKN,SCT,0.02,WeatherDisplay:10.37,2013-02-01 01:14:00,
2013-01-31 20:19:00,32.5,20.9,29.89,West,278,7.4,7.4,62,0.00,BKN,SCT,0.02,WeatherDisplay:10.37,2013-02-01 01:19:00,
2013-01-31 20:24:00,32.6,21.0,29.89,WNW,284,8.1,8.1,62,0.00,BKN,SCT,0.02,WeatherDisplay:10.37,2013-02-01 01:24:00,
2013-01-31 20:29:00,32.6,21.0,29.88,NE,55,9.2,9.2,62,0.00,BKN,SCT,0.02,WeatherDisplay:10.37,2013-02-01 01:29:00,
2013-01-31 20:34:00,32.4,20.8,29.88,West,264,2.0,0.0,62,0.00,BKN,SCT,0.02,WeatherDisplay:10.37,2013-02-01 01:34:00,
2013-01-31 20:39:00,32.5,21.3,29.88,North,349,10.4,10.4,63,0.00,BKN,SCT,0.02,WeatherDisplay:10.37,2013-02-01 01:39:00,
2013-01-31 20:44:00,32.6,21.4,29.88,NW,322,3.5,3.5,63,0.00,BKN,SCT,0.02,WeatherDisplay:10.37,2013-02-01 01:44:00,
2013-01-31 20:49:00,32.5,21.3,29.88,NNE,14,6.9,6.9,63,0.00,BKN,SCT,0.02,WeatherDisplay:10.37,2013-02-01 01:49:00,
2013-01-31 20:54:00,32.5,21.3,29.88,WNW,287,5.8,5.8,63,0.00,BKN,SCT,0.02,WeatherDisplay:10.37,2013-02-01 01:54:00,
2013-01-31 20:59:00,32.6,21.4,29.88,West,270,6.9,6.9,63,0.00,BKN,SCT,0.02,WeatherDisplay:10.37,2013-02-01 01:59:00,
2013-01-31 21:04:00,32.6,21.4,29.87,NE,34,5.9,5.9,63,0.00,SCT,,0.02,WeatherDisplay:10.37,2013-02-01 02:04:00,
2013-01-31 21:09:00,32.5,21.3,29.88,North,8,8.1,8.1,63,0.00,SCT,,0.02,WeatherDisplay:10.37,2013-02-01 02:09:00,
2013-01-31 21:14:00,32.6,21.8,29.88,ESE,119,6.9,6.9,64,0.00,SCT,,0.02,WeatherDisplay:10.37,2013-02-01 02:14:00,
2013-01-31 21:19:00,32.6,21.4,29.88,West,271,6.9,6.9,63,0.00,SCT,,0.02,WeatherDisplay:10.37,2013-02-01 02:19:00,
2013-01-31 21:24:00,32.6,21.4,29.88,WNW,292,11.5,11.5,63,0.00,SCT,,0.02,WeatherDisplay:10.37,2013-02-01 02:24:00,
2013-01-31 21:29:00,32.8,21.6,29.88,West,280,5.2,5.2,63,0.00,SCT,,0.02,WeatherDisplay:10.37,2013-02-01 02:29:00,
2013-01-31 21:34:00,32.8,21.6,29.88,North,356,3.5,3.5,63,0.00,SCT,,0.02,WeatherDisplay:10.37,2013-02-01 02:34:00,
2013-01-31 21:39:00,32.7,21.5,29.89,NNW,335,3.5,3.5,63,0.00,SCT,,0.02,WeatherDisplay:10.37,2013-02-01 02:39:00,
2013-01-31 21:44:00,32.9,21.7,29.88,WNW,296,8.1,8.1,63,0.00,SCT,,0.02,WeatherDisplay:10.37,2013-02-01 02:44:00,
2013-01-31 21:49:00,32.7,21.5,29.88,NNE,27,10.4,10.4,63,0.00,SCT,,0.02,WeatherDisplay:10.37,2013-02-01 02:49:00,
2013-01-31 21:54:00,33.0,21.8,29.89,WNW,292,7.0,7.0,63,0.00,SCT,,0.02,WeatherDisplay:10.37,2013-02-01 02:54:00,
2013-01-31 21:59:00,33.0,21.8,29.88,NNE,20,6.9,7.6,63,0.00,SCT,,0.02,WeatherDisplay:10.37,2013-02-01 02:59:00,
2013-01-31 22:04:00,33.0,21.4,29.88,NNW,342,15.0,15.0,62,0.00,FEW,SCT,0.02,WeatherDisplay:10.37,2013-02-01 03:04:00,
2013-01-31 22:09:00,33.0,21.4,29.88,West,278,11.5,11.5,62,0.00,FEW,SCT,0.02,WeatherDisplay:10.37,2013-02-01 03:09:00,
2013-01-31 22:14:00,33.0,21.8,29.88,West,270,4.6,4.6,63,0.00,FEW,SCT,0.02,WeatherDisplay:10.37,2013-02-01 03:14:00,
2013-01-31 22:19:00,33.0,21.8,29.88,NNW,328,8.1,8.1,63,0.00,FEW,SCT,0.02,WeatherDisplay:10.37,2013-02-01 03:19:00,
2013-01-31 22:24:00,33.1,21.5,29.88,NE,34,9.2,9.2,62,0.00,FEW,SCT,0.02,WeatherDisplay:10.37,2013-02-01 03:24:00,
2013-01-31 22:29:00,33.0,21.8,29.88,North,352,8.1,8.1,63,0.00,FEW,SCT,0.02,WeatherDisplay:10.37,2013-02-01 03:29:00,
2013-01-31 22:34:00,33.2,22.0,29.88,NNE,13,9.2,9.2,63,0.00,FEW,SCT,0.02,WeatherDisplay:10.37,2013-02-01 03:34:00,
2013-01-31 22:39:00,32.9,21.7,29.88,North,8,4.6,4.6,63,0.00,FEW,SCT,0.02,WeatherDisplay:10.37,2013-02-01 03:39:00,
2013-01-31 22:44:00,33.2,22.0,29.88,North,0,4.2,4.2,63,0.00,FEW,SCT,0.02,WeatherDisplay:10.37,2013-02-01 03:44:00,
2013-01-31 22:49:00,33.0,21.8,29.88,West,271,8.1,8.1,63,0.00,FEW,SCT,0.02,WeatherDisplay:10.37,2013-02-01 03:49:00,
2013-01-31 22:54:00,33.0,21.8,29.88,NW,315,6.9,6.9,63,0.00,FEW,SCT,0.02,WeatherDisplay:10.37,2013-02-01 03:54:00,
2013-01-31 22:59:00,33.2,21.6,29.88,WSW,243,6.9,6.9,62,0.00,FEW,SCT,0.02,WeatherDisplay:10.37,2013-02-01 03:59:00,
2013-01-31 23:04:00,33.1,21.5,29.87,SSW,202,4.6,4.6,62,0.00,CLR,SCT,0.02,WeatherDisplay:10.37,2013-02-01 04:04:00,
2013-01-31 23:09:00,33.3,21.7,29.87,WSW,258,9.6,9.6,62,0.00,CLR,SCT,0.02,WeatherDisplay:10.37,2013-02-01 04:09:00,
2013-01-31 23:14:00,33.3,21.7,29.87,WSW,254,6.9,6.9,62,0.00,CLR,SCT,0.02,WeatherDisplay:10.37,2013-02-01 04:14:00,
2013-01-31 23:19:00,33.4,21.8,29.86,SW,222,5.8,5.8,62,0.00,CLR,SCT,0.02,WeatherDisplay:10.37,2013-02-01 04:19:00,
2013-01-31 23:24:00,33.3,21.7,29.86,West,265,8.1,8.1,62,0.00,CLR,SCT,0.02,WeatherDisplay:10.37,2013-02-01 04:24:00,
2013-01-31 23:29:00,33.3,21.7,29.87,WSW,254,10.4,10.4,62,0.00,CLR,SCT,0.02,WeatherDisplay:10.37,2013-02-01 04:29:00,
2013-01-31 23:34:00,33.3,21.7,29.86,West,270,7.2,7.2,62,0.00,CLR,SCT,0.02,WeatherDisplay:10.37,2013-02-01 04:34:00,
2013-01-31 23:39:00,33.2,22.0,29.86,WSW,247,9.5,9.5,63,0.00,CLR,SCT,0.02,WeatherDisplay:10.37,2013-02-01 04:39:00,
2013-01-31 23:44:00,33.1,21.9,29.86,SW,220,4.6,4.6,63,0.00,CLR,SCT,0.02,WeatherDisplay:10.37,2013-02-01 04:44:00,
2013-01-31 23:49:00,33.1,21.9,29.85,South,174,6.1,6.1,63,0.00,CLR,SCT,0.02,WeatherDisplay:10.37,2013-02-01 04:49:00,
2013-01-31 23:54:00,32.9,22.0,29.85,SE,131,4.6,4.6,64,0.00,CLR,SCT,0.02,WeatherDisplay:10.37,2013-02-01 04:54:00,